KC5EZZ-2 Weather Reports


Display with metric or nautical units.
time (UTC)temp
F
wind
direction
speed
MPH
gust
MPH
rain 1hr
in
rain 24hr
in
rain mn
in
humidity
%
barometer
mb
20260506051053 69 226 0.0 0.0 0.00 0.00 0.00
20260506050554 69 226 0.0 0.0 0.00 0.00 0.00
20260506045052 69 239 0.0 0.0 0.00 0.00 0.00
20260506044550 69 302 1.0 0.0 0.00 0.00 0.00
20260506044051 69 326 4.0 2.0 0.00 0.00 0.00
20260506043551 70 253 0.0 0.0 0.00 0.00 0.00
20260506043049 71 253 0.0 0.0 0.00 0.00 0.00
20260506042639 72 253 0.0 0.0 0.00 0.00 0.00
20260506042549 71 253 0.0 0.0 0.00 0.00 0.00
20260506042050 72 253 0.0 0.0 0.00 0.00 0.00
20260506041548 71 253 0.0 0.0 0.00 0.00 0.00
20260506041048 71 253 0.0 0.0 0.00 0.00 0.00
20260506040549 72 253 0.0 0.0 0.00 0.00 0.00
20260506040046 72 253 0.0 0.0 0.00 0.00 0.00
20260506035547 72 253 0.0 0.0 0.00 0.00 0.00
20260506035047 73 253 0.0 0.0 0.00 0.00 0.00
20260506034545 73 253 0.0 0.0 0.00 0.00 0.00
20260506034045 74 253 0.0 0.0 0.00 0.00 0.00
20260506033546 75 253 0.0 0.0 0.00 0.00 0.00
20260506033043 75 253 0.0 0.0 0.00 0.00 0.00
20260506032544 75 253 0.0 0.0 0.00 0.00 0.00
20260506032044 75 253 0.0 0.0 0.00 0.00 0.00
20260506031542 76 253 0.0 0.0 0.00 0.00 0.00
20260506031042 76 253 0.0 0.0 0.00 0.00 0.00
20260506030543 77 253 0.0 0.0 0.00 0.00 0.00
20260506030040 77 253 0.0 0.0 0.00 0.00 0.00
20260506025541 77 253 0.0 0.0 0.00 0.00 0.00
20260506025041 78 253 0.0 0.0 0.00 0.00 0.00
20260506024538 78 283 2.0 2.0 0.00 0.00 0.00
20260506024038 78 263 3.0 3.0 0.00 0.00 0.00
20260506023539 78 273 4.0 5.0 0.00 0.00 0.00
20260506023036 78 287 4.0 4.0 0.00 0.00 0.00
20260506022537 79 281 5.0 3.0 0.00 0.00 0.00
20260506022037 79 291 5.0 3.0 0.00 0.00 0.00
20260506021535 79 288 3.0 1.0 0.00 0.00 0.00
20260506021204 80 259 0.0 1.0 0.00 0.00 0.00
20260506021035 80 259 0.0 1.0 0.00 0.00 0.00
20260506020536 80 297 2.0 1.0 0.00 0.00 0.00
20260506020033 80 301 4.0 4.0 0.00 0.00 0.00
20260506015534 80 298 3.0 3.0 0.00 0.00 0.00
20260506015034 80 291 3.0 4.0 0.00 0.00 0.00
20260506014532 81 293 4.0 3.0 0.00 0.00 0.00
20260506014032 82 290 4.0 3.0 0.00 0.00 0.00
20260506013533 82 294 5.0 4.0 0.00 0.00 0.00
20260506013030 82 284 5.0 6.0 0.00 0.00 0.00
20260506012531 83 281 6.0 5.0 0.00 0.00 0.00
20260506012031 83 283 7.0 6.0 0.00 0.00 0.00
20260506011529 84 280 5.0 7.0 0.00 0.00 0.00
20260506011029 85 277 5.0 4.0 0.00 0.00 0.00
20260506010529 85 304 6.0 4.0 0.00 0.00 0.00
20260506010027 86 290 8.0 7.0 0.00 0.00 0.00
20260506005527 87 285 5.0 8.0 0.00 0.00 0.00
20260506005028 87 266 6.0 9.0 0.00 0.00 0.00
20260506004525 87 293 7.0 4.0 0.00 0.00 0.00
20260506004026 88 243 6.0 8.0 0.00 0.00 0.00
20260506003526 89 271 7.0 6.0 0.00 0.00 0.00
20260506003023 89 321 3.0 2.0 0.00 0.00 0.00
20260506002524 89 238 1.0 2.0 0.00 0.00 0.00
20260506002024 90 231 1.0 0.0 0.00 0.00 0.00
20260506001522 90 211 3.0 3.0 0.00 0.00 0.00
20260506001022 90 246 2.0 3.0 0.00 0.00 0.00
20260506000522 89 238 3.0 3.0 0.00 0.00 0.00
20260506000020 89 240 3.0 2.0 0.00 0.00 0.00
20260505235520 89 231 4.0 7.0 0.00 0.00 0.00
20260505235021 89 229 4.0 4.0 0.00 0.00 0.00
20260505234518 90 228 5.0 3.0 0.00 0.00 0.00
20260505234018 90 228 4.0 6.0 0.00 0.00 0.00
20260505233519 90 215 6.0 8.0 0.00 0.00 0.00
20260505233016 90 224 4.0 3.0 0.00 0.00 0.00
20260505232516 90 249 7.0 6.0 0.00 0.00 0.00
20260505232017 91 229 8.0 8.0 0.00 0.00 0.00
20260505231514 91 238 5.0 3.0 0.00 0.00 0.00
20260505231100 92 214 7.0 4.0 0.00 0.00 0.00
20260505231014 92 214 7.0 4.0 0.00 0.00 0.00
20260505230515 93 229 7.0 8.0 0.00 0.00 0.00
20260505230012 92 226 7.0 6.0 0.00 0.00 0.00
20260505225513 92 255 7.0 4.0 0.00 0.00 0.00
20260505225013 93 229 7.0 6.0 0.00 0.00 0.00
20260505224510 94 218 8.0 9.0 0.00 0.00 0.00
20260505224011 94 205 4.0 4.0 0.00 0.00 0.00
20260505223511 94 243 7.0 9.0 0.00 0.00 0.00
20260505223008 93 252 6.0 9.0 0.00 0.00 0.00
20260505222509 94 231 8.0 7.0 0.00 0.00 0.00
20260505222009 93 235 8.0 6.0 0.00 0.00 0.00
20260505221505 93 221 7.0 6.0 0.00 0.00 0.00
20260505221005 92 246 8.0 8.0 0.00 0.00 0.00
20260505220505 94 214 8.0 4.0 0.00 0.00 0.00
20260505220003 94 232 6.0 8.0 0.00 0.00 0.00
20260505215503 92 242 9.0 7.0 0.00 0.00 0.00
20260505215003 94 242 7.0 6.0 0.00 0.00 0.00
20260505214501 94 222 4.0 5.0 0.00 0.00 0.00
20260505214001 92 203 5.0 4.0 0.00 0.00 0.00
20260505213501 93 257 8.0 7.0 0.00 0.00 0.00
20260505213409 93 221 9.0 10.0 0.00 0.00 0.00
20260505212958 93 221 9.0 10.0 0.00 0.00 0.00
20260505212458 94 252 9.0 8.0 0.00 0.00 0.00
20260505211958 94 242 9.0 11.0 0.00 0.00 0.00
20260505211456 94 285 8.0 6.0 0.00 0.00 0.00
20260505210956 93 269 6.0 4.0 0.00 0.00 0.00
20260505210456 94 277 10.0 10.0 0.00 0.00 0.00
20260505205954 95 295 8.0 8.0 0.00 0.00 0.00
20260505205454 94 284 10.0 9.0 0.00 0.00 0.00
20260505204954 94 215 9.0 10.0 0.00 0.00 0.00
20260505204452 95 269 11.0 8.0 0.00 0.00 0.00
20260505203952 96 293 7.0 9.0 0.00 0.00 0.00
20260505203452 95 239 4.0 9.0 0.00 0.00 0.00
20260505202950 95 281 5.0 11.0 0.00 0.00 0.00
20260505202450 94 257 6.0 7.0 0.00 0.00 0.00
20260505201950 95 264 6.0 11.0 0.00 0.00 0.00
20260505201447 94 300 6.0 5.0 0.00 0.00 0.00
20260505200948 94 252 6.0 10.0 0.00 0.00 0.00
20260505200448 93 238 8.0 10.0 0.00 0.00 0.00
20260505195946 94 264 8.0 8.0 0.00 0.00 0.00
20260505195446 95 246 5.0 6.0 0.00 0.00 0.00
20260505194946 94 253 7.0 8.0 0.00 0.00 0.00
20260505194442 94 238 9.0 7.0 0.00 0.00 0.00
20260505193942 95 233 7.0 7.0 0.00 0.00 0.00
20260505193442 94 288 7.0 4.0 0.00 0.00 0.00
20260505193313 93 260 7.0 7.0 0.00 0.00 0.00
20260505192940 93 273 6.0 2.0 0.00 0.00 0.00
20260505192440 93 260 7.0 7.0 0.00 0.00 0.00
20260505191940 93 270 7.0 7.0 0.00 0.00 0.00
20260505191438 93 242 5.0 8.0 0.00 0.00 0.00
20260505190938 93 260 7.0 7.0 0.00 0.00 0.00
20260505190438 93 255 10.0 6.0 0.00 0.00 0.00
20260505185936 93 284 6.0 12.0 0.00 0.00 0.00
20260505185436 93 263 5.0 10.0 0.00 0.00 0.00
20260505184936 92 250 9.0 8.0 0.00 0.00 0.00
20260505184434 91 246 9.0 9.0 0.00 0.00 0.00
20260505183934 91 232 8.0 4.0 0.00 0.00 0.00
20260505183434 92 284 9.0 8.0 0.00 0.00 0.00
20260505182932 91 264 7.0 6.0 0.00 0.00 0.00
20260505182432 90 290 9.0 5.0 0.00 0.00 0.00
20260505181933 91 270 10.0 7.0 0.00 0.00 0.00
20260505181430 91 253 9.0 6.0 0.00 0.00 0.00
20260505180930 91 242 8.0 8.0 0.00 0.00 0.00
20260505180431 90 239 7.0 8.0 0.00 0.00 0.00
20260505175928 91 249 9.0 8.0 0.00 0.00 0.00
20260505175429 91 285 11.0 8.0 0.00 0.00 0.00
20260505174929 91 271 6.0 5.0 0.00 0.00 0.00
20260505174426 90 224 7.0 10.0 0.00 0.00 0.00
20260505173926 90 248 10.0 7.0 0.00 0.00 0.00
20260505173427 90 281 7.0 8.0 0.00 0.00 0.00
20260505172924 90 243 7.0 6.0 0.00 0.00 0.00
20260505172425 90 245 3.0 3.0 0.00 0.00 0.00
20260505171925 89 203 6.0 7.0 0.00 0.00 0.00
20260505171422 89 165 5.0 4.0 0.00 0.00 0.00
20260505170923 88 191 6.0 4.0 0.00 0.00 0.00
20260505170423 87 232 6.0 5.0 0.00 0.00 0.00
20260505165920 87 253 5.0 5.0 0.00 0.00 0.00
20260505165534 85 236 8.0 7.0 0.00 0.00 0.00
20260505165421 85 236 8.0 7.0 0.00 0.00 0.00
20260505164921 84 211 8.0 6.0 0.00 0.00 0.00
20260505164519 84 203 10.0 10.0 0.00 0.00 0.00
20260505164419 84 203 10.0 10.0 0.00 0.00 0.00
20260505163919 83 222 8.0 11.0 0.00 0.00 0.00
20260505163420 83 232 12.0 9.0 0.00 0.00 0.00
20260505162917 83 205 7.0 12.0 0.00 0.00 0.00
20260505162417 82 197 9.0 6.0 0.00 0.00 0.00
20260505161918 82 197 8.0 8.0 0.00 0.00 0.00
20260505161415 80 225 11.0 10.0 0.00 0.00 0.00
20260505160915 80 194 11.0 10.0 0.00 0.00 0.00
20260505160415 80 218 11.0 9.0 0.00 0.00 0.00
20260505152908 79 198 9.0 8.0 0.00 0.00 0.00
20260505152408 79 180 7.0 6.0 0.00 0.00 0.00
20260505151909 79 198 6.0 9.0 0.00 0.00 0.00
20260505151406 78 195 8.0 8.0 0.00 0.00 0.00
20260505150407 77 172 8.0 8.0 0.00 0.00 0.00
20260505140358 73 193 10.0 14.0 0.00 0.00 0.00
20260505124847 69 225 7.0 7.0 0.00 0.00 0.00
20260505124421 69 191 7.0 9.0 0.00 0.00 0.00
20260505124345 69 191 7.0 9.0 0.00 0.00 0.00
20260505123845 68 191 8.0 13.0 0.00 0.00 0.00
20260505123346 68 203 9.0 9.0 0.00 0.00 0.00
20260505122843 68 210 8.0 6.0 0.00 0.00 0.00
20260505122344 68 197 8.0 9.0 0.00 0.00 0.00
20260505121844 68 200 11.0 11.0 0.00 0.00 0.00
20260505121340 68 208 11.0 8.0 0.00 0.00 0.00
20260505120923 68 188 12.0 15.0 0.00 0.00 0.00
20260505120840 68 188 12.0 15.0 0.00 0.00 0.00
20260505120341 67 204 11.0 10.0 0.00 0.00 0.00
20260505115847 68 188 11.0 9.0 0.00 0.00 0.00
20260505115838 68 188 11.0 9.0 0.00 0.00 0.00
20260505115434 68 183 12.0 9.0 0.00 0.00 0.00
20260505115339 68 183 12.0 9.0 0.00 0.00 0.00
20260505114839 67 224 10.0 13.0 0.00 0.00 0.00
20260505114336 67 188 10.0 10.0 0.00 0.00 0.00
20260505113836 67 188 8.0 11.0 0.00 0.00 0.00
20260505113337 67 201 9.0 8.0 0.00 0.00 0.00
20260505112834 67 205 8.0 11.0 0.00 0.00 0.00
20260505112335 67 177 7.0 8.0 0.00 0.00 0.00
20260505111835 67 233 7.0 8.0 0.00 0.00 0.00
20260505111333 67 188 6.0 7.0 0.00 0.00 0.00
20260505110833 68 245 6.0 7.0 0.00 0.00 0.00
20260505110408 68 194 8.0 9.0 0.00 0.00 0.00
20260505110333 68 194 8.0 9.0 0.00 0.00 0.00
20260505101828 69 194 9.0 8.0 0.00 0.00 0.00
20260505101414 69 191 7.0 9.0 0.00 0.00 0.00
20260505101325 69 191 7.0 9.0 0.00 0.00 0.00
20260505100826 69 170 9.0 9.0 0.00 0.00 0.00
20260505100326 69 172 9.0 7.0 0.00 0.00 0.00
20260505095824 69 191 10.0 9.0 0.00 0.00 0.00
20260505095324 69 194 10.0 11.0 0.00 0.00 0.00
20260505094825 69 203 9.0 10.0 0.00 0.00 0.00
20260505094401 69 187 11.0 12.0 0.00 0.00 0.00
20260505094323 69 187 11.0 12.0 0.00 0.00 0.00
20260505093324 69 195 9.0 8.0 0.00 0.00 0.00
20260505092821 69 176 8.0 9.0 0.00 0.00 0.00
20260505092322 69 184 10.0 10.0 0.00 0.00 0.00
20260505091822 70 204 10.0 8.0 0.00 0.00 0.00
20260505091319 69 205 9.0 6.0 0.00 0.00 0.00
20260505090820 70 197 11.0 13.0 0.00 0.00 0.00
20260505090320 69 194 9.0 11.0 0.00 0.00 0.00
20260505085817 69 198 9.0 9.0 0.00 0.00 0.00
20260505085318 69 201 12.0 8.0 0.00 0.00 0.00
20260505084818 69 219 8.0 8.0 0.00 0.00 0.00
20260505084316 70 205 8.0 7.0 0.00 0.00 0.00
20260505083816 70 176 12.0 12.0 0.00 0.00 0.00
20260505083317 70 211 11.0 10.0 0.00 0.00 0.00
20260505082814 70 207 9.0 10.0 0.00 0.00 0.00
20260505082350 70 194 9.0 10.0 0.00 0.00 0.00
20260505082316 70 194 9.0 10.0 0.00 0.00 0.00
20260505081857 70 170 10.0 9.0 0.00 0.00 0.00
20260505081815 70 170 10.0 9.0 0.00 0.00 0.00
20260505081313 70 173 12.0 12.0 0.00 0.00 0.00
20260505080813 70 207 10.0 6.0 0.00 0.00 0.00
20260505080314 70 198 13.0 10.0 0.00 0.00 0.00
20260505075811 70 207 10.0 10.0 0.00 0.00 0.00
20260505075312 70 186 12.0 12.0 0.00 0.00 0.00
20260505074812 70 193 10.0 13.0 0.00 0.00 0.00
20260505074310 70 204 11.0 17.0 0.00 0.00 0.00
20260505073810 71 170 13.0 9.0 0.00 0.00 0.00
20260505073311 71 183 16.0 14.0 0.00 0.00 0.00
20260505072808 71 183 13.0 14.0 0.00 0.00 0.00
20260505072309 71 195 14.0 12.0 0.00 0.00 0.00
20260505071809 71 158 15.0 11.0 0.00 0.00 0.00
20260505071307 71 184 12.0 11.0 0.00 0.00 0.00
20260505070807 71 193 10.0 12.0 0.00 0.00 0.00
20260505070307 71 176 12.0 13.0 0.00 0.00 0.00
20260505065805 71 193 13.0 13.0 0.00 0.00 0.00
20260505065305 71 177 10.0 7.0 0.00 0.00 0.00
20260505064806 71 184 13.0 14.0 0.00 0.00 0.00
20260505064303 71 203 11.0 8.0 0.00 0.00 0.00
20260505063804 71 204 11.0 9.0 0.00 0.00 0.00
20260505063304 71 167 11.0 11.0 0.00 0.00 0.00
20260505062801 71 169 13.0 11.0 0.00 0.00 0.00
20260505062301 72 169 13.0 14.0 0.00 0.00 0.00
20260505061801 72 190 11.0 10.0 0.00 0.00 0.00
20260505061259 72 163 11.0 11.0 0.00 0.00 0.00
20260505060759 72 177 12.0 11.0 0.00 0.00 0.00
20260505060300 72 166 11.0 12.0 0.00 0.00 0.00